[[{"header":{"parameterUnit":"m.s-1","parameterCategory":1,"la1":30.2991,"la2":30.254,"lo1":-89.0895,"lo2":-89.0444,"dy":0.0017,"dx":0.0017,"nx":28,"ny":28,"refTime":"2023-08-26T09:00:00:Z","depth":0,"parameterNumber":2,"parameterNumberName":"U-component_of_WINDS"},"data":[0,0,0,0,0,0,0,0,0,0,0,0,0,0,0,0,0,0,0,0,0,0,0,0,0,0,0,0,0,0,0,0,0,0,0,0,0,0,0,0,0,0,0,0,0,0,0,0,0,0,0,0,0,0,0,0,0,0,-1.916,-1.9161,0,-1.9227,-1.9227,-1.9228,-1.9222,-1.9221,-1.922,-1.9219,-1.9282,-1.9285,-1.9287,0,0,0,0,0,0,0,0,0,0,0,0,0,-1.9026,-1.9028,-1.916,-1.9161,-1.9162,-1.9227,-1.9227,-1.9228,-1.9223,-1.9221,-1.922,-1.9219,-1.9281,-1.9285,-1.9288,0,0,0,0,0,0,0,0,0,0,0,0,0,-1.9087,-1.9029,-1.916,-1.9167,-1.9168,-1.9226,-1.9227,-1.9229,-1.9223,-1.9221,-1.922,-1.9218,-1.928,-1.9284,-1.9288,-1.9342,0,0,-1.93,-1.9302,0,0,0,0,0,0,0,0,-1.9084,-1.9092,-1.9165,-1.9167,-1.9168,-1.9215,-1.9203,-1.9266,-1.9223,-1.9202,-1.9219,-1.9218,-1.9261,-1.9266,-1.9282,-1.9345,-1.9348,-1.93,-1.9303,-1.9304,-1.9305,0,0,0,0,0,0,0,-1.9079,-1.9089,-1.9186,-1.9166,-1.9168,-1.9166,-1.9173,-1.9215,-1.9239,-1.9204,-1.9203,-1.9212,-1.9261,-1.9278,-1.9283,-1.9349,-1.93,-1.9304,-1.9306,-1.9308,-1.9461,-1.9463,0,0,0,0,0,0,-1.9074,-1.9086,-1.9184,-1.9188,-1.9122,-1.9169,-1.9177,-1.9201,-1.9238,-1.9243,-1.9213,-1.9211,-1.9272,-1.9279,-1.9285,-1.9352,-1.9304,-1.9308,-1.931,-1.9459,-1.9462,-1.9463,0,0,0,0,0,0,-1.9071,-1.9083,-1.9181,-1.9137,-1.9149,-1.9173,-1.92,-1.9203,-1.922,-1.9245,-1.9249,-1.9226,-1.9271,-1.928,-1.9329,-1.9354,-1.931,-1.9313,-1.9457,-1.946,-1.9463,-1.9484,0,0,0,0,0,0,-1.9067,-1.9082,-1.9103,-1.9138,-1.9152,-1.9225,-1.9202,-1.9206,-1.9227,-1.9226,-1.9258,-1.9262,-1.9271,-1.9323,-1.9333,-1.9358,-1.9316,-1.9455,-1.9459,-1.9462,-1.9481,-1.9487,-1.9492,0,0,0,0,0,-1.9063,-1.9105,-1.9104,-1.9116,-1.9179,-1.9226,-1.9234,-1.9244,-1.9229,-1.9251,-1.9267,-1.9261,-1.935,-1.9328,-1.9339,-1.9366,-1.9454,-1.9458,-1.9461,-1.9479,-1.9486,-1.9492,0,0,0,0,0,0,-1.907,-1.9109,-1.9109,-1.9164,-1.9192,-1.9225,-1.9252,-1.9251,-1.9282,-1.9279,-1.9289,-1.9297,-1.9346,-1.9361,-1.9336,-1.9421,-1.94,-1.9406,-1.9409,-1.9416,-1.9422,-1.9416,-1.932,0,0,0,0,0,-1.9078,-1.9115,-1.9147,-1.9192,-1.9207,-1.9227,-1.9248,-1.9254,-1.9282,-1.9294,-1.9314,-1.934,-1.9375,-1.9396,-1.9429,-1.9484,-1.9491,-1.9508,-1.9514,-1.9518,-1.9523,-1.9554,-1.9562,-1.9476,-1.9476,-1.9476,0,0,-1.9095,-1.9121,-1.9143,-1.9194,-1.9217,-1.9253,-1.9237,-1.9275,-1.9302,-1.9299,-1.9347,-1.9363,-1.9394,-1.9446,-1.947,-1.946,-1.9549,-1.9523,-1.9527,-1.9529,-1.9559,-1.9567,-1.9574,-1.9479,-1.9479,-1.9478,0,0,-1.9144,-1.9168,-1.9209,-1.9233,-1.9269,-1.9282,-1.9293,-1.9327,-1.9338,-1.9387,-1.9385,-1.9417,-1.9476,-1.9498,-1.9517,-1.9579,-1.9574,-1.9589,-1.9617,-1.9647,-1.9654,-1.966,-1.9682,-1.969,-1.9594,-1.9594,-1.9594,0,-1.916,-1.9216,-1.923,-1.927,-1.9293,-1.9295,-1.9336,-1.9358,-1.9401,-1.9417,-1.9406,-1.948,-1.9501,-1.9559,-1.9575,-1.9591,-1.9602,-1.9584,-1.9652,-1.9658,-1.9664,-1.9685,-1.9693,-1.9596,-1.9596,-1.9596,-1.9595,0,-1.9234,-1.9273,-1.9302,-1.9347,-1.9373,-1.9414,-1.9433,-1.9458,-1.9463,-1.9478,-1.9528,-1.9554,-1.9592,-1.9607,-1.961,-1.9667,-1.9659,-1.965,-1.9629,-1.9674,-1.9693,-1.9702,-1.9598,-1.9598,-1.9597,-1.9597,0,0,-1.9286,-1.9341,-1.9351,-1.9372,-1.9413,-1.9443,-1.9484,-1.9525,-1.9546,-1.9577,-1.9611,-1.9662,-1.9655,-1.9677,-1.9683,-1.971,-1.9758,-1.9698,-1.9699,-1.9708,-1.9821,-1.9827,-1.9836,-1.9757,-1.9758,-1.9759,-1.9818,0,-1.9339,-1.9413,-1.9429,-1.9493,-1.9529,-1.9533,-1.9569,-1.9598,-1.9614,-1.9647,-1.9664,-1.97,-1.9688,-1.9701,-1.9728,-1.9746,-1.9781,-1.9743,-1.9787,-1.9788,-1.9778,-1.9846,-1.9851,-1.9906,-1.9826,-1.9828,-1.9829,0,-1.9409,-1.9445,-1.9513,-1.9552,-1.9568,-1.96,-1.9639,-1.9671,-1.9704,-1.9713,-1.974,-1.9745,-1.9787,-1.9766,-1.9824,-1.9798,-1.9818,-1.983,-1.9832,-1.9835,-1.981,-1.985,-1.9923,-1.9931,-1.9841,-1.984,-1.9839,0,-1.944,-1.9505,-1.9555,-1.9573,-1.9619,-1.9642,-1.9661,-1.9693,-1.9717,-1.9751,-1.9767,-1.9805,-1.9825,-1.9854,-1.9869,-1.9852,-1.9926,-1.9906,-1.9935,-1.9934,-1.9948,-1.9946,-2.0024,-1.9963,-1.9963,-1.9963,-1.9963,0,-1.9496,-1.9538,-1.957,-1.96,-1.9647,-1.9664,-1.971,-1.973,-1.9759,-1.9792,-1.9798,-1.9829,-1.9848,-1.9882,-1.9894,-1.994,-1.995,-1.9958,-1.996,-1.9957,-1.9955,-1.9968,-1.9964,-1.9965,-1.9965,-1.9964,-1.9964,0,-1.9537,-1.956,-1.9615,-1.9655,-1.9667,-1.9699,-1.9734,-1.9763,-1.9781,-1.9824,-1.9835,-1.9862,-1.9902,-1.9921,-1.997,-1.9978,-2.0031,-2.0031,-2.002,-2.0021,-2.0048,-2.0045,-2.0136,-2.0148,-2.008,-2.0081,-2.0081,0,-1.957,-1.9603,-1.9649,-1.9673,-1.9694,-1.9733,-1.9758,-1.9778,-1.9803,-1.9846,-1.987,-1.9912,-1.9945,-2.001,-2.0033,-2.0071,-2.0072,-2.0101,-2.0077,-2.0073,-2.0071,-2.0068,-2.0072,-2.0104,-2.0105,-2.0106,-2.0106,0,-1.9627,-1.9638,-1.9676,-1.9718,-1.9749,-1.9783,-1.9815,-1.9835,-1.9859,-1.9888,-1.9931,-1.9958,-2.001,-2.0051,-2.0092,-2.0111,-2.0112,-2.0114,-2.0123,-2.0118,-2.011,-2.0114,-2.0031,-2.0111,-2.011,-2.011,-2.011,-2.011,-1.9665,-1.9695,-1.9732,-1.9774,-1.9802,-1.9833,-1.9864,-1.9887,-1.9924,-1.9969,-1.9978,-2.0024,-2.0058,-2.0113,-2.0134,-2.0169,-2.0162,-2.0175,-2.0177,-2.018,-2.0181,-2.0107,-2.0177,-2.0177,-2.0177,-2.0177,-2.0177,0,-1.9722,-1.9747,-1.9786,-1.9833,-1.9867,-1.9869,-1.9906,-1.9933,-1.9974,-2.0007,-2.0041,-2.0091,-2.0132,-2.016,-2.0201,-2.0224,-2.0226,-2.0234,-2.0231,-2.0236,-2.0186,-2.0174,-2.0232,-2.0232,-2.0232,-2.0232,-2.0232,-2.0232,-1.9755,-1.9806,-1.9821,-1.9886,-1.9911,-1.9958,-1.9979,-2.0008,-2.0034,-2.0091,-2.0125,-2.0145,-2.0175,-2.0219,-2.0257,-2.0264,-2.0278,-2.0286,-2.0293,-2.0245,-2.0239,-2.0233,-2.0222,-2.029,-2.029,-2.034,-2.0341,-2.0341]},{"header":{"parameterUnit":"m.s-1","parameterCategory":1,"la1":30.2991,"la2":30.254,"lo1":-89.0895,"lo2":-89.0444,"dy":0.0017,"dx":0.0017,"nx":28,"ny":28,"refTime":"2023-08-26T09:00:00:Z","depth":0,"parameterNumber":3,"parameterNumberName":"V-component_of_WINDS"},"data":[0,0,0,0,0,0,0,0,0,0,0,0,0,0,0,0,0,0,0,0,0,0,0,0,0,0,0,0,0,0,0,0,0,0,0,0,0,0,0,0,0,0,0,0,0,0,0,0,0,0,0,0,0,0,0,0,0,0,2.4458,2.4458,0,2.4431,2.4431,2.443,2.4415,2.4415,2.4415,2.4415,2.4381,2.438,2.4379,0,0,0,0,0,0,0,0,0,0,0,0,0,2.4493,2.4492,2.4458,2.4458,2.4457,2.4431,2.4431,2.443,2.4415,2.4415,2.4415,2.4415,2.4381,2.438,2.4379,0,0,0,0,0,0,0,0,0,0,0,0,0,2.4473,2.4492,2.4458,2.4447,2.4446,2.4431,2.4431,2.443,2.4415,2.4415,2.4415,2.4415,2.4382,2.438,2.4379,2.4372,0,0,2.4375,2.4374,0,0,0,0,0,0,0,0,2.4474,2.4472,2.4449,2.4448,2.4446,2.4427,2.443,2.441,2.4415,2.4426,2.4415,2.4415,2.4396,2.4393,2.4388,2.437,2.4369,2.4375,2.4374,2.4374,2.4373,0,0,0,0,0,0,0,2.4475,2.4473,2.4447,2.4449,2.4447,2.4442,2.4439,2.4427,2.4411,2.4425,2.4424,2.4422,2.4395,2.4389,2.4387,2.4368,2.4375,2.4374,2.4373,2.4372,2.4344,2.4344,0,0,0,0,0,0,2.4479,2.4474,2.4448,2.4446,2.4461,2.4441,2.4438,2.4433,2.4412,2.4408,2.4422,2.4421,2.4392,2.4389,2.4386,2.4377,2.4374,2.4372,2.4372,2.4344,2.4344,2.4344,0,0,0,0,0,0,2.448,2.4477,2.4449,2.446,2.4456,2.4441,2.4435,2.4432,2.4427,2.4409,2.4406,2.4419,2.4391,2.4388,2.4376,2.4375,2.4372,2.437,2.4344,2.4344,2.4344,2.4358,0,0,0,0,0,0,2.4481,2.4478,2.4475,2.446,2.4456,2.4441,2.4435,2.4432,2.4425,2.4424,2.4405,2.4402,2.4391,2.4378,2.4375,2.4373,2.4369,2.4344,2.4344,2.4344,2.4357,2.4358,2.4359,0,0,0,0,0,2.4483,2.4479,2.4475,2.4472,2.4453,2.4441,2.4438,2.4427,2.4425,2.4422,2.4411,2.4403,2.4376,2.4377,2.4373,2.4371,2.4344,2.4344,2.4344,2.4357,2.4358,2.4359,0,0,0,0,0,0,2.4492,2.4476,2.4472,2.4464,2.4454,2.4439,2.4434,2.4429,2.4418,2.4417,2.4402,2.4398,2.4388,2.4378,2.438,2.4364,2.4359,2.4359,2.437,2.4371,2.4372,2.4374,2.4368,0,0,0,0,0,2.4493,2.4487,2.4473,2.4466,2.4462,2.445,2.4444,2.4437,2.4425,2.442,2.4408,2.4396,2.4385,2.4378,2.4366,2.4357,2.4352,2.4353,2.4354,2.4355,2.4354,2.4349,2.4349,2.4345,2.4345,2.4345,0,0,2.4495,2.4486,2.4482,2.4468,2.446,2.4452,2.4446,2.4437,2.4431,2.4418,2.4407,2.4398,2.4384,2.4373,2.4368,2.4365,2.4355,2.4355,2.4356,2.4355,2.4349,2.435,2.435,2.4345,2.4345,2.4345,0,0,2.4495,2.4488,2.4482,2.4475,2.4463,2.4455,2.4454,2.444,2.4434,2.4424,2.4414,2.4406,2.4387,2.4378,2.437,2.4369,2.4361,2.4366,2.437,2.4365,2.4366,2.4366,2.4365,2.4365,2.4365,2.4366,2.4366,0,2.4498,2.4488,2.4479,2.4473,2.4467,2.4458,2.4451,2.4444,2.4428,2.4424,2.4422,2.44,2.4389,2.4377,2.4377,2.4371,2.4369,2.4367,2.4367,2.4367,2.4367,2.4366,2.4366,2.4366,2.4366,2.4366,2.4366,0,2.4493,2.4486,2.4482,2.4471,2.4464,2.4458,2.4447,2.4442,2.4436,2.4428,2.4418,2.4405,2.4392,2.4389,2.4382,2.4376,2.4375,2.437,2.4365,2.4368,2.4367,2.4367,2.4367,2.4367,2.4367,2.4367,0,0,2.4495,2.4481,2.448,2.4475,2.4463,2.4456,2.445,2.4439,2.4435,2.4425,2.4418,2.4404,2.4401,2.4392,2.4384,2.438,2.4381,2.4376,2.4375,2.4377,2.4374,2.4377,2.4377,2.4376,2.4376,2.4376,2.4375,0,2.4493,2.4482,2.4475,2.4466,2.446,2.4452,2.4446,2.4438,2.4431,2.4423,2.4415,2.4405,2.4401,2.4396,2.4392,2.4382,2.438,2.4382,2.4369,2.4368,2.4372,2.4377,2.4379,2.4379,2.4375,2.4375,2.4375,0,2.4488,2.4481,2.4472,2.4463,2.446,2.4455,2.4445,2.4439,2.4429,2.4424,2.4416,2.4409,2.4401,2.4398,2.4387,2.4388,2.4383,2.4377,2.4377,2.4374,2.4371,2.4373,2.4378,2.4378,2.4374,2.4374,2.4374,0,2.4491,2.4479,2.4473,2.4469,2.4457,2.4454,2.4448,2.4439,2.4434,2.4425,2.4421,2.4411,2.4405,2.4397,2.4388,2.4386,2.4377,2.4373,2.4372,2.4372,2.4368,2.4368,2.4372,2.4367,2.4367,2.4367,2.4367,0,2.4488,2.4483,2.4474,2.447,2.4464,2.4456,2.445,2.4444,2.4436,2.443,2.4423,2.4417,2.4405,2.4397,2.4389,2.4381,2.4378,2.4374,2.4371,2.4374,2.4374,2.4369,2.4368,2.4367,2.4367,2.4367,2.4367,0,2.4489,2.4483,2.4476,2.4466,2.4464,2.446,2.4451,2.4447,2.4441,2.4433,2.4431,2.442,2.4412,2.4402,2.4389,2.4383,2.4375,2.4373,2.4379,2.4378,2.4377,2.4377,2.4376,2.4375,2.4371,2.4371,2.4372,0,2.4488,2.4484,2.4475,2.4472,2.4467,2.4461,2.4457,2.4449,2.4444,2.4434,2.4431,2.4422,2.4415,2.4401,2.4391,2.4381,2.4378,2.4378,2.4376,2.4379,2.4377,2.4377,2.4377,2.4378,2.4378,2.4378,2.4378,0,2.4485,2.4483,2.4477,2.4471,2.4467,2.4461,2.4454,2.4452,2.4443,2.4438,2.443,2.4425,2.4413,2.4404,2.4394,2.4387,2.4381,2.438,2.4379,2.438,2.4384,2.4382,2.438,2.4379,2.4379,2.4379,2.4379,2.4379,2.4485,2.4481,2.4475,2.4469,2.4465,2.446,2.4455,2.445,2.4444,2.4435,2.4431,2.4423,2.4414,2.4401,2.4395,2.4388,2.4385,2.4384,2.4384,2.4383,2.4384,2.4387,2.4386,2.4386,2.4386,2.4386,2.4386,0,2.4482,2.4478,2.4473,2.4466,2.4461,2.4459,2.4452,2.4448,2.4442,2.4436,2.4429,2.4421,2.4413,2.4404,2.4395,2.4391,2.4389,2.4389,2.4389,2.4387,2.4386,2.4388,2.4392,2.4392,2.4392,2.4392,2.4392,2.4392,2.4479,2.4474,2.4471,2.4464,2.446,2.4453,2.445,2.4445,2.444,2.4431,2.4426,2.4421,2.4413,2.4404,2.4397,2.4394,2.4391,2.4393,2.4389,2.4388,2.4387,2.4387,2.4388,2.4392,2.4392,2.4391,2.4391,2.4391]}]]